Weather History for Salisbury, MD

Change the Weather History Date:

Tuesday, November 20, 2012

  Actual Average Record
Temperature  
Mean Temperature 49 °F 47 °F  
Max Temperature 58 °F 57 °F 75 °F (1985)
Min Temperature 39 °F 37 °F 22 °F (1924)
Degree Days  
Heating Degree Days 16 18  
Month to date heating degree days 336 306  
Since 1 July heating degree days 530 619  
Cooling Degree Days 0 0  
Month to date cooling degree days 0 0  
Year to date cooling degree days 1732 1150  
Moisture  
Dew Point 42 °F    
Average Humidity 71    
Maximum Humidity 86    
Minimum Humidity 55    
Precipitation  
Precipitation 0.00 in 0.12 in 1.24 in (1972)
Month to date precipitation 0.37 2.24  
Year to date precipitation 39.90 40.78  
Snow  
Snow 0.00 in 0.00 in T in (1937)
Month to date snowfall 0.0 0.1  
Since 1 July snowfall 0.0 0.1  
Snow Depth 0.00 in    
Sea Level Pressure  
Sea Level Pressure 30.14 in    
Wind  
Wind Speed 5 mph (NNE)    
Max Wind Speed 15 mph    
Max Gust Speed 17 mph    
Visibility 10 miles    
Events      
T = Trace of Precipitation, MM = Missing Value Source: NWS Daily Summary

Daily Weather History Graph

Daily Weather History Graph

Search for Another Location

Airport:

Trip Planner

Search our weather history database for the weather conditions in past years. The results will help you decide how hot, cold, wet, or windy it might be!

Date:

Astronomy

Nov. 20, 2012 Rise Set
Actual Time 6:49 AM EST 4:45 PM EST
Civil Twilight 6:20 AM EST 5:14 PM EST
Nautical Twilight 5:48 AM EST 5:46 PM EST
Astronomical Twilight 5:17 AM EST 6:18 PM EST
Moon 12:25 PM EST No Moon Set
Length of Visible Light 10h 53m
Length of Day
9h 56m
Waxing Crescent, 51% of the Moon is Illuminated
Nov 20
Waxing Crescent
Nov 28
Full
Dec 6
Last Quarter
Dec 13
New
Dec 20
First Quarter

Hourly Weather History & Observations

Time (EST) Temp. Dew Point Humidity Pressure Visibility Wind Dir Wind Speed Gust Speed Precip Events Conditions
12:54 AM 50.0 °F 43.0 °F 77% 30.18 in 10.0 mi NNE 6.9 mph - N/A   Overcast
1:15 AM 50.0 °F 44.6 °F 82% 30.17 in 10.0 mi NNE 5.8 mph - N/A   Overcast
1:23 AM 50.0 °F 44.6 °F 82% 30.17 in 10.0 mi North 8.1 mph - N/A   Overcast
1:39 AM 50.0 °F 44.6 °F 82% 30.17 in 10.0 mi NNE 6.9 mph - N/A   Overcast
1:54 AM 50.0 °F 44.1 °F 80% 30.17 in 10.0 mi NNE 6.9 mph - N/A   Overcast
2:05 AM 50.0 °F 44.6 °F 82% 30.16 in 10.0 mi NNE 5.8 mph - N/A   Overcast
2:29 AM 50.0 °F 44.6 °F 82% 30.15 in 10.0 mi NNE 4.6 mph - N/A   Overcast
2:54 AM 50.0 °F 44.1 °F 80% 30.16 in 10.0 mi North 6.9 mph - N/A   Overcast
3:54 AM 50.0 °F 44.1 °F 80% 30.15 in 10.0 mi North 8.1 mph - N/A   Overcast
4:54 AM 50.0 °F 44.1 °F 80% 30.17 in 10.0 mi North 5.8 mph - N/A   Overcast
5:36 AM 50.0 °F 44.6 °F 82% 30.16 in 10.0 mi NNE 5.8 mph - N/A   Overcast
5:54 AM 50.0 °F 44.1 °F 80% 30.17 in 10.0 mi NNE 6.9 mph - N/A   Overcast
6:54 AM 51.1 °F 44.1 °F 77% 30.17 in 10.0 mi NNE 5.8 mph - N/A   Overcast
7:54 AM 51.1 °F 44.1 °F 77% 30.18 in 10.0 mi NE 8.1 mph - N/A   Overcast
8:19 AM 51.8 °F 42.8 °F 71% 30.17 in 10.0 mi NE 10.4 mph - N/A   Overcast
8:54 AM 51.1 °F 43.0 °F 74% 30.18 in 10.0 mi NE 9.2 mph - N/A   Overcast
9:54 AM 51.1 °F 42.1 °F 71% 30.17 in 10.0 mi NNE 9.2 mph - N/A   Overcast
10:42 AM 53.6 °F 42.8 °F 67% 30.15 in 10.0 mi Variable 6.9 mph - N/A   Scattered Clouds
10:54 AM 54.0 °F 42.1 °F 64% 30.15 in 10.0 mi North 6.9 mph - N/A   Partly Cloudy
11:54 AM 55.0 °F 42.1 °F 62% 30.12 in 10.0 mi WNW 5.8 mph - N/A   Partly Cloudy
12:54 PM 57.0 °F 41.0 °F 55% 30.10 in 10.0 mi NNW 3.5 mph - N/A   Clear
1:54 PM 55.9 °F 39.9 °F 55% 30.10 in 10.0 mi NNW 9.2 mph - N/A   Clear
2:54 PM 55.9 °F 39.0 °F 53% 30.09 in 10.0 mi NNE 6.9 mph - N/A   Clear
3:54 PM 54.0 °F 39.9 °F 59% 30.10 in 10.0 mi NNE 6.9 mph - N/A   Clear
4:54 PM 51.1 °F 39.0 °F 63% 30.10 in 10.0 mi NNE 4.6 mph - N/A   Clear
5:54 PM 48.0 °F 39.0 °F 71% 30.10 in 10.0 mi Calm Calm - N/A   Clear
6:54 PM 46.0 °F 39.0 °F 76% 30.11 in 10.0 mi Calm Calm - N/A   Clear
7:54 PM 42.1 °F 37.0 °F 82% 30.13 in 9.0 mi Calm Calm - N/A   Clear
8:54 PM 41.0 °F 37.0 °F 86% 30.13 in 8.0 mi Calm Calm - N/A   Clear
9:54 PM 43.0 °F 37.9 °F 82% 30.13 in 9.0 mi Calm Calm - N/A   Clear
10:54 PM 43.0 °F 37.0 °F 80% 30.13 in 9.0 mi Calm Calm - N/A   Clear
11:54 PM 39.0 °F 34.0 °F 82% 30.12 in 8.0 mi Calm Calm - N/A   Clear